San Diego Classic - Holiday Cup - Inventory

Station: INVENTORY - T Race

Distance: 10 Miles    

Release: 03-Aug-2017 16:00

Weather Release:    Arrival:

Wind at Release:     Wind at Arrival:

Temp at Release: °    Temp at Arrival: °

Lofts: 129

Birds: 700

Clocked: 599

Good Luck to Everyone!
Drops Pos Breeder Pigeon Name Color Sex Ent Arrival Speed To Win Eligible RaceAvg Speed
1 No Limit Loft - CA 6401-AU17-HP BBWF H 1 16:45:34.50 386.177 00:00:00 Missing
2 Tony Chang - CA 0290-AU17-PAL BB H 1 16:45:56.80 383.053 00:00:22 Yes
3 Alex Ruiz - CA 7508-AU17-RUIZ BB H 1 16:46:00.80 382.498 00:00:26 Missing
4 Two-Be-Won - NV 17133-AU17-TBW BC H 1 16:46:03.90 382.069 00:00:29 Missing
5 Desert Rose Lofts - NV 0298-AU17-DRL BC H 1 16:46:11.30 381.049 00:00:37 Missing
6 Paco Loft - CA 0775-AU17-PACO DCWF H 1 16:46:15.60 380.458 00:00:41 Missing
7 Rickyracers - CA 0123-AU17-LAND BB H 1 16:46:32.60 378.142 00:00:58 Yes
8 Michael Groe - CA 8960-AU17-JEDD BB H 1 16:46:32.90 378.102 00:00:58 Missing
9 C L & Patty Gage - TX 2905-AU17-TEX DC H 1 16:46:37.70 377.453 00:01:03 Missing
10 Naylor/Spring - BC 1363-CU17-MPAC BB H 1 16:46:41.40 376.954 00:01:07 Lost
11 Milestone Loft - CA 0120-AU17-SD BC H 1 16:46:43.70 376.645 00:01:09 Lost
12 U Cluj - NV 12009-AU17-JEDD BBWF H 1 16:46:47.60 376.122 00:01:13 Lost
13 Missiles Castro - AZ 2415-AU17-MISS BB H 1 16:47:10.50 373.079 00:01:36 Missing
14 Modud - CO 17059-AU17-PUEB BC H 1 16:47:19.60 371.883 00:01:45 Missing
15 Desert Rose Lofts - NV 0280-AU17-DRL BC H 2 16:47:34.10 369.994 00:02:00 Yes
16 Aok Loft - NE 0977-AU17-OMA SIL H 1 16:47:51.00 367.816 00:02:17 Missing
17 Van-Robins - CA 0755-AU17-OCF BC H 1 16:47:53.70 367.471 00:02:19 Missing
18 C L & Patty Gage - TX 2909-AU17-TEX DC H 2 16:47:56.40 367.126 00:02:22 Missing
19 Winnerscupusa.Com - OK 8153-AU17-TRPC BCPD H 1 16:48:04.60 366.082 00:02:30 Lost
20 Team Phoenix - AZ 0224-AU17-SUN BB H 1 16:48:19.60 364.188 00:02:45 Lost
21 Milestone Loft - CA 0148-AU17-SD BB H 2 16:48:27.00 363.261 00:02:53 Missing
22 Arrowhead Loft - CA 0008-AU17-AH BBSP H 1 16:48:46.00 360.902 00:03:12 Missing
23 Zhenyuan Guo - SC 0650-AU17-GUO BB H 1 16:50:02.30 351.730 00:04:28 Missing
24 Paco Loft - CA 0746-AU17-PACO BC H 2 16:50:42.40 347.094 00:05:08 Missing
25 C P C A Syndicate - AZ 0891-AU17-DUTC BB H 1 16:52:00.90 338.364 00:06:26 Lost
26 Aok Loft - NE 0952-AU17-OMAH BC H 2 16:52:06.70 337.736 00:06:32 Missing
27 Pairan Racing Loft - OH 0326-AU17-LFO BB H 1 16:53:20.80 329.918 00:07:46 Missing
28 Desert Rose Lofts - NV 0262-AU17-DRL BB H 1 16:53:36.60 328.297 00:08:02 Missing
29 C N I Loft - Gettings - CA 0114-AU17-CNA SIL H 1 16:54:20.00 323.926 00:08:46 Missing
30 U Cluj - NV 0547-AU17-OTC BC H 2 16:54:23.70 323.559 00:08:49 Lost
31 Modud - CO 1325-AU17-SD BB H 2 16:54:58.90 320.107 00:09:24 Lost
32 Nemeth Family Loft - CA 9012-AU17-BON BC H 1 16:55:12.60 318.783 00:09:38 Missing
Sterchi & Bieche - CA 7301-AU17-BICH BB H 16:55:20.10 318.063 Missing
33 We Be She's - NV 17002-AU17-TBW BB H 1 16:57:17.50 307.200 00:11:43 Missing
34 Sandstrom Brothers Loft - MN 0785-AU17-SBL BBPD H 1 16:58:21.30 301.602 00:12:47 Missing
35 Koepf & Mcknight - CA 21262-AU17-JEDD BB H 1 16:58:48.60 299.269 00:13:14 Missing
36 Win Maker Loft - CA 0154-AU17-PNOY BB H 1 17:00:43.50 289.831 00:15:09 Lost
37 Milestone Loft - CA 0159-AU17-SD BC H 3 17:02:25.70 281.923 00:16:51 Missing
38 Koepf & Mcknight - CA 21263-AU17-JEDD BB H 2 17:05:55.90 266.943 00:20:21 Missing
39 Nanez Family Lofts - WI 4569-AU17-NANE BB H 1 17:05:59.80 266.680 00:20:25 Missing
40 Hawaiian Express - CA 0157-AU17-HAWE BB H 1 17:06:01.60 266.559 00:20:27 Missing
41 J & M Partridge Loft - CA 0846-AU17-PASO BCSP H 1 17:06:03.70 266.418 00:20:29 Missing
42 Haslem-Stevens - UT 7926-AU17-COR BB H 1 17:06:23.90 265.067 00:20:49 Missing
43 3s Lofts - CA 0221-AU17-VIP SIL H 1 17:06:39.50 264.033 00:21:05 Lost
44 No Limit Loft - CA 7935-AU17-NYK RC H 2 17:06:52.20 263.197 00:21:18 Missing
45 Genesis Syndicate Loft - AZ 0463-AU17-SYNL BB H 1 17:06:53.90 263.086 00:21:19 Missing
46 Bill Dozier - TX 3709-AU17-TEX BC H 1 17:07:21.80 261.270 00:21:47 Missing
47 Turk Brand Syndicate - IA 0019-AU17-BLOC BB H 1 17:09:04.80 254.777 00:23:30 Yes
48 88 - CA 17144-AU17-YIIK BB H 1 17:09:24.70 253.560 00:23:50 Missing
49 Tenbrink Irma & Eddie - CA 0345-AU17-VIP GRIZ H 1 17:09:26.00 253.481 00:23:51 Lost
50 Tom Cano Family - CA 0715-AU17-SD BBWF H 1 17:09:58.10 251.542 00:24:24 Missing
51 Utaz Team - UT 0954-AU17-SLI BB H 1 17:10:18.90 250.302 00:24:44 Missing
52 Flying Rainbows - WA 0162-AU17-FLYD DC H 1 17:14:23.90 236.564 00:28:49 Lost
53 Bird Love To Fly - CA 20086-AU17-JEDD BCWF H 1 17:14:29.90 236.247 00:28:55 Missing
54 Nemeth Family Loft - CA 9068-AU17-BON BB H 2 17:14:35.60 235.946 00:29:01 Yes
55 P N A Loft - CA 1749-AU17-PNA BB H 1 17:14:39.40 235.746 00:29:05 Missing
56 Missiles Castro - AZ 2423-AU17-MISS BB H 2 17:14:45.10 235.446 00:29:11 Lost
57 Eduardo Torres - TX 14265-AU17-ARPU BB H 1 17:16:21.60 230.487 00:30:47 Yes
58 Rick Barker - CA 0001-AU17-VIP BB H 1 17:16:26.30 230.251 00:30:52 Yes
59 Win Maker Loft - CA 0320-AU17-SD BB H 2 17:16:32.80 229.925 00:30:58 Yes
60 Rickyracers - CA 0106-AU17-LAND BBWF H 2 17:16:56.80 228.730 00:31:22 Yes
61 Bryan Maier - PA 0377-AU17-MAIE BB H 1 17:17:22.20 227.478 00:31:48 Missing
62 Crescendo Loft - NM 18401-AU17-AA BBWF H 1 17:17:47.10 226.265 00:32:13 Lost
63 C P C A Syndicate - AZ 0899-AU17-DUTC BB H 2 17:18:00.40 225.622 00:32:26 Missing
64 Koepf & Mcknight - CA 21261-AU17-JEDD BC H 3 17:18:09.70 225.174 00:32:35 Yes
65 Alex Ruiz - CA 7521-AU17-RUIZ BB H 2 17:18:11.50 225.088 00:32:37 Lost
66 Paco Loft - CA 0744-AU17-PACO BC H 3 17:18:12.00 225.064 00:32:38 Missing
67 A P C Loft - TX 17380-AU17-APC BB H 1 17:19:30.70 221.351 00:33:56 Lost
68 Jalisco - CA 1921-AU17-JALI BBSP H 1 17:19:55.40 220.211 00:34:21 Missing
69 New Generation Loft - CA 1947-AU17-JALI DCWF H 1 17:20:02.90 219.867 00:34:28 Missing
70 Haslem-Stevens - UT 0613-AU17-DWI SILS H 2 17:20:04.10 219.812 00:34:30 Lost
71 Aok Loft - NE 0984-AU17-OMA BB H 3 17:20:06.90 219.684 00:34:32 Lost
72 Venn Family Loft - WY 1859-AU17-VENN RC H 1 17:20:29.80 218.643 00:34:55 Lost
73 The Association - CA 0754-AU17-JEDD C'mon 754 BCPD H 1 17:20:52.40 217.624 00:35:18 Missing
74 Four For More 2 - CA 1721-AU17-CVII BC H 1 17:21:06.60 216.989 00:35:32 Missing
75 Eduardo Torres - TX 14258-AU17-ARPU BB H 2 17:21:56.30 214.796 00:36:22 Missing
Los Banditos - CA 2438-AU17-LBAN BB H 17:22:00.10 214.630 Missing
76 Kolvenbag & Son - PA 3363-IF17-WC BCWF H 1 17:22:44.90 212.693 00:37:10 Lost
77 Les Antal - CA 0205-AU17-SD BB H 1 17:23:43.50 210.212 00:38:09 Missing
78 Desert Rose Lofts - NV 0270-AU17-DRL BB H 2 17:23:49.60 209.957 00:38:15 Lost
79 Two-Be-Won - NV 17131-AU17-TBW BB H 2 17:23:57.10 209.644 00:38:23 Lost
80 Carlton Kroese-Crazy Al - CO 1123-AU17-HOHC BB H 1 17:24:39.40 207.899 00:39:05 Missing
81 Team Phoenix - AZ 12381-AU17-ARPU BBWF H 2 17:25:34.40 205.672 00:40:00 Missing
82 Red Ass Ranch - TX 0140-AU17-RAR BB H 1 17:25:48.40 205.112 00:40:14 Lost
83 Avelino Loft - CA 7060-AU17-HAN BB H 1 17:26:35.60 203.249 00:41:01 Lost
84 Milestone Loft - CA 0110-AU17-SD BB H 4 17:28:08.40 199.682 00:42:34 Missing
85 Steve Lance - CA 2484-AU17-COM BB H 1 17:28:48.00 198.198 00:43:14 Yes
86 Jenkins Racing - CA 0023-AU17-WEF Consbin BC H 1 17:29:19.00 197.052 00:43:44 Yes
87 Any Given Day-Quest - TX 16546-AU17-QUES BB H 1 17:29:55.20 195.730 00:44:21 Missing
88 America\'s Dream Loft - IL 0217-AU17-ADL BB H 1 17:29:55.50 195.719 00:44:21 Lost
89 Duane Gragg - CA 0971-AU17-AUB BC H 1 17:30:03.70 195.422 00:44:29 Missing
90 Arrowhead Loft - CA 0004-AU17-AH BBWF H 2 17:30:04.40 195.396 00:44:30 Yes
91 J & M Partridge Loft - CA 0572-AU17-PASO BC H 2 17:30:09.70 195.205 00:44:35 Missing
92 Les Fujitake - HI 13939-AU17-FOYS BC H 1 17:30:13.20 195.079 00:44:39 Lost
93 U Cluj - NV 0501-AU17-OTC DC H 3 17:30:23.80 194.697 00:44:49 Missing
94 Wayne Herron - CA 1708-AU17-SD BB H 1 17:30:31.10 194.436 00:44:57 Yes
95 C L & Patty Gage - TX 2907-AU17-TEX BBWF H 3 17:30:35.10 194.293 00:45:01 Missing
96 Shiloft - PA 5025-AU17-ERIE BC H 1 17:30:57.40 193.499 00:45:23 Missing
97 Dan And Greg Coury - AZ 4405-AU17-ARPU BB H 1 17:31:08.70 193.099 00:45:34 Lost
98 New Generation Loft - CA 1930-AU17-JALI BB H 2 17:31:15.70 192.852 00:45:41 Lost

There are 106 bird records

Note: These Race Results are unofficial and subject to change until verified by the Race Committee and declared final.